DW5244 Weather Reports


Display with metric or nautical units.
time (UTC)temp
F
wind
direction
speed
MPH
gust
MPH
rain 1hr
in
rain 24hr
in
rain mn
in
humidity
%
barometer
mb
20260507003048 84 335 2.0 5.0 0.00 0.00 0.00 15 1012.9
20260507001546 83 207 2.0 5.0 0.00 0.00 0.00 18 1012.9
20260507000041 84 161 1.0 5.0 0.00 0.00 0.00 17 1012.8
20260506234547 82 223 1.0 5.0 0.00 0.00 0.00 18 1012.8
20260506233051 83 263 7.0 11.0 0.00 0.00 0.00 16 1012.8
20260506231539 83 265 6.0 10.0 0.00 0.00 0.00 15 1012.8
20260506230046 83 299 0.0 4.0 0.00 0.00 0.00 17 1012.9
20260506224537 83 174 3.0 6.0 0.00 0.00 0.00 15 1013.0
20260506223042 83 53 4.0 12.0 0.00 0.00 0.00 17 1013.0
20260506221535 83 227 5.0 9.0 0.00 0.00 0.00 15 1013.2
20260506220035 82 230 1.0 11.0 0.00 0.00 0.00 17 1013.1
20260506214540 83 247 4.0 10.0 0.00 0.00 0.00 16 1013.3
20260506213040 82 281 2.0 10.0 0.00 0.00 0.00 17 1013.4
20260506211533 82 294 2.0 7.0 0.00 0.00 0.00 17 1013.6
20260506210033 82 240 3.0 14.0 0.00 0.00 0.00 16 1013.9
20260506204532 82 293 5.0 13.0 0.00 0.00 0.00 16 1014.1
20260506203033 83 278 6.0 10.0 0.00 0.00 0.00 16 1014.2
20260506201531 82 209 2.0 10.0 0.00 0.00 0.00 16 1014.3
20260506200030 82 258 7.0 17.0 0.00 0.00 0.00 15 1014.4
20260506194530 83 227 6.0 15.0 0.00 0.00 0.00 17 1014.3
20260506193026 83 232 9.0 12.0 0.00 0.00 0.00 15 1014.5
20260506191526 82 257 9.0 17.0 0.00 0.00 0.00 16 1014.6
20260506190024 82 192 4.0 7.0 0.00 0.00 0.00 19 1014.8
20260506184539 80 277 7.0 14.0 0.00 0.00 0.00 19 1015.1
20260506183030 81 272 9.0 19.0 0.00 0.00 0.00 17 1015.1
20260506181525 80 275 4.0 16.0 0.00 0.00 0.00 19 1015.1
20260506180017 79 246 9.0 17.0 0.00 0.00 0.00 20 1015.4
20260506174518 79 226 10.0 16.0 0.00 0.00 0.00 20 1015.5
20260506173012 78 213 8.0 16.0 0.00 0.00 0.00 21 1015.7
20260506171510 78 294 9.0 16.0 0.00 0.00 0.00 21 1015.7
20260506170010 78 294 9.0 13.0 0.00 0.00 0.00 23 1015.6
20260506164508 77 274 7.0 12.0 0.00 0.00 0.00 23 1015.6
20260506163003 76 360 7.0 13.0 0.00 0.00 0.00 23 1015.4
20260506161602 76 269 6.0 14.0 0.00 0.00 0.00 24 1015.4
20260506160108 76 290 6.0 12.0 0.00 0.00 0.00 24 1015.4
20260506154601 75 304 4.0 6.0 0.00 0.00 0.00 25 1015.3
20260506153108 74 325 3.0 10.0 0.00 0.00 0.00 29 1015.0
20260506151547 73 360 5.0 12.0 0.00 0.00 0.00 29 1014.8
20260506150053 73 360 7.0 10.0 0.00 0.00 0.00 30 1014.8
20260506144544 72 360 4.0 8.0 0.00 0.00 0.00 32 1014.9
20260506143038 71 360 4.0 9.0 0.00 0.00 0.00 32 1014.9
20260506141533 68 360 4.0 8.0 0.00 0.00 0.00 37 1014.8
20260506140031 67 360 0.0 3.0 0.00 0.00 0.00 39 1014.9
20260506134530 66 360 2.0 3.0 0.00 0.00 0.00 41 1014.7
20260506133022 66 360 2.0 3.0 0.00 0.00 0.00 42 1014.5
20260506131526 66 360 1.0 4.0 0.00 0.00 0.00 36 1014.4
20260506130016 65 360 3.0 4.0 0.00 0.00 0.00 40 1014.3
20260506124512 65 360 2.0 4.0 0.00 0.00 0.00 38 1014.1
20260506123008 66 360 2.0 3.0 0.00 0.00 0.00 36 1013.9
20260506121506 67 360 3.0 5.0 0.00 0.00 0.00 34 1013.7
20260506120015 68 360 3.0 8.0 0.00 0.00 0.00 31 1013.4
20260506114513 68 360 7.0 9.0 0.00 0.00 0.00 31 1013.3
20260506113006 66 360 2.0 4.0 0.00 0.00 0.00 36 1013.2
20260506111559 66 360 1.0 4.0 0.00 0.00 0.00 34 1013.0
20260506110058 67 360 1.0 3.0 0.00 0.00 0.00 33 1012.9
20260506104600 69 360 1.0 4.0 0.00 0.00 0.00 30 1012.8
20260506103057 69 360 3.0 5.0 0.00 0.00 0.00 30 1012.9
20260506101554 68 360 3.0 5.0 0.00 0.00 0.00 31 1012.7
20260506100051 68 360 2.0 4.0 0.00 0.00 0.00 31 1012.7
20260506094551 69 360 1.0 5.0 0.00 0.00 0.00 30 1012.7
20260506093050 69 360 3.0 6.0 0.00 0.00 0.00 29 1012.8
20260506091554 69 360 1.0 4.0 0.00 0.00 0.00 29 1012.8
20260506090053 69 360 2.0 6.0 0.00 0.00 0.00 28 1012.7
20260506084548 70 360 4.0 8.0 0.00 0.00 0.00 28 1012.8
20260506083041 71 360 7.0 10.0 0.00 0.00 0.00 27 1012.8
20260506081540 71 360 7.0 12.0 0.00 0.00 0.00 26 1012.9
20260506073035 71 360 7.0 10.0 0.00 0.00 0.00 26 1013.0
20260506071532 72 360 7.0 10.0 0.00 0.00 0.00 25 1013.0
20260506061526 72 360 4.0 8.0 0.00 0.00 0.00 26 1012.5
20260506044514 74 326 0.0 3.0 0.00 0.00 0.00 25 1012.0
20260506043014 75 325 1.0 5.0 0.00 0.00 0.00 24 1011.9
20260506041513 76 319 2.0 6.0 0.00 0.00 0.00 22 1011.7
20260506040021 77 320 2.0 6.0 0.00 0.00 0.00 22 1011.4
20260506034519 77 331 3.0 6.0 0.00 0.00 0.00 21 1011.5
20260506033011 78 340 4.0 6.0 0.00 0.00 0.00 20 1011.1
20260506031511 78 325 5.0 9.0 0.00 0.00 0.00 20 1011.0
20260506030025 79 336 4.0 8.0 0.00 0.00 0.00 20 1010.8
20260506024517 79 355 7.0 10.0 0.00 0.00 0.00 19 1010.6
20260506023012 80 355 6.0 13.0 0.00 0.00 0.00 19 1010.2
20260506021508 80 336 9.0 15.0 0.00 0.00 0.00 18 1010.3
20260506020008 81 333 6.0 12.0 0.00 0.00 0.00 18 1010.1
20260506014506 81 355 11.0 15.0 0.00 0.00 0.00 17 1010.0
20260506013008 81 360 10.0 18.0 0.00 0.00 0.00 17 1009.7
20260506011505 82 346 10.0 14.0 0.00 0.00 0.00 17 1009.5
20260506010010 82 355 11.0 16.0 0.00 0.00 0.00 16 1009.2
20260506004505 83 360 15.0 20.0 0.00 0.00 0.00 16 1008.9